This is the latest recevied weather packets stored in our database for station/object WE1C. If no packets are shown the sender has not sent any weather packets the latest 10 day(s).
| Time | Temp. | Humidity | Pressure | Rain* | Wind** | Luminosity | Snow |
|---|---|---|---|---|---|---|---|
| 1788143121 | 67° F | 96% | 784.9 mmHg | 0.21 in | - | 0 W/m² | - |
| 1788142817 | 67° F | 96% | 784.9 mmHg | 0.09 in | - | 0 W/m² | - |
| 1788142515 | 67° F | 94% | 785 mmHg | 0.05 in | - | 0 W/m² | - |
| 1788142212 | 68° F | 93% | 784.9 mmHg | 0.26 in | - | 0 W/m² | - |
| 1788141907 | 68° F | 93% | 784.9 mmHg | 0.83 in | - | 0 W/m² | - |
| 1788141601 | 69° F | 90% | 784.9 mmHg | 0.4 in | - | 0 W/m² | - |
| 1788141297 | 69° F | 87% | 784.8 mmHg | 0 in | - | 0 W/m² | - |
| 1788140992 | 69° F | 87% | 784.6 mmHg | 0 in | - | 0 W/m² | - |
| 1788140687 | 70° F | 86% | 784.6 mmHg | 0 in | - | 0 W/m² | - |
| 1788140382 | 70° F | 85% | 784.5 mmHg | 0 in | - | 0 W/m² | - |
| 1788140078 | 70° F | 85% | 784.7 mmHg | 0 in | - | 0 W/m² | - |
| 1788139772 | 70° F | 84% | 784.4 mmHg | 0 in | - | 0 W/m² | - |
| 1788139467 | 70° F | 84% | 784.6 mmHg | 0 in | - | 0 W/m² | - |
| 1788139167 | 70° F | 83% | 784.6 mmHg | 0 in | - | 0 W/m² | - |
| 1788138861 | 70° F | 83% | 784.4 mmHg | 0 in | - | 0 W/m² | - |
| 1788138558 | 70° F | 83% | 784.4 mmHg | 0 in | - | 0 W/m² | - |
| 1788138252 | 70° F | 82% | 784.5 mmHg | 0 in | - | 0 W/m² | - |
| 1788137948 | 70° F | 82% | 784.4 mmHg | 0 in | - | 0 W/m² | - |
| 1788137643 | 70° F | 82% | 784.5 mmHg | 0 in | - | 0 W/m² | - |
| 1788137337 | 70° F | 82% | 784.4 mmHg | 0 in | - | 0 W/m² | - |
| 1788137034 | 70° F | 82% | 784.3 mmHg | 0 in | - | 0 W/m² | - |
| 1788136729 | 70° F | 81% | 784.3 mmHg | 0 in | - | 0 W/m² | - |
| 1788136426 | 70° F | 81% | 784.4 mmHg | 0 in | - | 0 W/m² | - |
| 1788136125 | 70° F | 81% | 784.3 mmHg | 0 in | - | 0 W/m² | - |
| 1788135824 | 70° F | 82% | 784.3 mmHg | 0 in | - | 0 W/m² | - |
* Rain latest hour (hover to see other rain measurements)
** Current wind speed in m/s (hover to see current wind gust speed)